Weather History for K06D - November, 2013

Change the Weather History Date:

Tuesday, November 5, 2013

  Actual Average (KRUG) Record (KRUG)
Temperature  
Mean Temperature 22 °F -  
Max Temperature 28 °F 41 °F 75 °F (1975)
Min Temperature 17 °F 23 °F -3 °F (1951)
Degree Days  
Heating Degree Days 42    
Moisture  
Dew Point 15 °F    
Average Humidity 72    
Maximum Humidity 93    
Minimum Humidity 51    
Precipitation  
Precipitation 0.00 in - - ()
Sea Level Pressure  
Sea Level Pressure 30.04 in    
Wind  
Wind Speed 13 mph (West)    
Max Wind Speed 22 mph    
Max Gust Speed 31 mph    
Visibility 10 miles    
Events      
Averages and records for this station are not official NWS values.
T = Trace of Precipitation, MM = Missing Value Source: NWS Daily Summary

Daily Weather History Graph

Daily Weather History Graph

Search for Another Location

Airport or City:

Trip Planner

Search our weather history database for the weather conditions in past years. The results will help you decide how hot, cold, wet, or windy it might be!

Date:

Astronomy

Nov. 05, 2013 Rise Set
Actual Time 7:32 AM CST 5:11 PM CST
Civil Twilight 6:58 AM CST 5:44 PM CST
Nautical Twilight 6:21 AM CST 6:22 PM CST
Astronomical Twilight 5:44 AM CST 6:59 PM CST
Moon 9:56 AM CST (11/5) 7:06 PM CST (11/5)
Length of Visible Light 10h 45m
Length of Day
9h 38m
Waxing Crescent, 7% of the Moon is Illuminated
Nov 5
Waxing Crescent
Nov 9
First Quarter
Nov 17
Full
Nov 25
Last Quarter
Dec 2
New

Hourly Weather History & Observations

Time (CST) Temp. Windchill Dew Point Humidity Pressure Visibility Wind Dir Wind Speed Gust Speed Precip Events Conditions
12:15 AM 23.0 °F 9.2 °F 14.0 °F 68% 29.92 in 10.0 mi West 17.3 mph 28.8 mph N/A   Scattered Clouds
12:35 AM 23.0 °F 9.6 °F 14.0 °F 68% 29.93 in 10.0 mi West 16.1 mph 31.1 mph N/A   Partly Cloudy
12:55 AM 23.0 °F 7.6 °F 14.0 °F 68% 29.93 in 10.0 mi West 21.9 mph 31.1 mph N/A   Scattered Clouds
1:15 AM 23.0 °F 9.2 °F 15.8 °F 74% 29.94 in 10.0 mi West 17.3 mph 21.9 mph N/A   Partly Cloudy
1:35 AM 23.0 °F 10.6 °F 15.8 °F 74% 29.94 in 10.0 mi West 13.8 mph - N/A   Partly Cloudy
1:55 AM 23.0 °F 8.3 °F 15.8 °F 74% 29.95 in 10.0 mi West 19.6 mph 25.3 mph N/A   Scattered Clouds
2:15 AM 23.0 °F 10.1 °F 15.8 °F 74% 29.95 in 10.0 mi West 15.0 mph 23.0 mph N/A   Mostly Cloudy
2:35 AM 23.0 °F 9.6 °F 15.8 °F 74% 29.96 in 10.0 mi West 16.1 mph 20.7 mph N/A   Mostly Cloudy
2:55 AM 21.2 °F 7.8 °F 15.8 °F 80% 29.97 in 10.0 mi West 15.0 mph 21.9 mph N/A   Mostly Cloudy
3:15 AM 23.0 °F 9.2 °F 15.8 °F 74% 29.97 in 10.0 mi West 17.3 mph 24.2 mph N/A   Overcast
3:35 AM 21.2 °F 7.8 °F 15.8 °F 80% 29.98 in 10.0 mi West 15.0 mph 18.4 mph N/A   Overcast
3:55 AM 21.2 °F 7.8 °F 15.8 °F 80% 29.98 in 10.0 mi West 15.0 mph 23.0 mph N/A   Mostly Cloudy
4:15 AM 19.4 °F 7.2 °F 15.8 °F 86% 29.99 in 10.0 mi West 11.5 mph - N/A   Mostly Cloudy
4:35 AM 19.4 °F 8.6 °F 15.8 °F 86% 29.99 in 10.0 mi West 9.2 mph 17.3 mph N/A   Mostly Cloudy
4:55 AM 19.4 °F 6.6 °F 15.8 °F 86% 30.00 in 10.0 mi West 12.7 mph - N/A   Mostly Cloudy
5:15 AM 19.4 °F 8.6 °F 15.8 °F 86% 30.01 in 10.0 mi West 9.2 mph 18.4 mph N/A   Partly Cloudy
5:35 AM 19.4 °F 7.9 °F 15.8 °F 86% 30.02 in 10.0 mi West 10.4 mph 17.3 mph N/A   Scattered Clouds
5:55 AM 19.4 °F 6.6 °F 14.0 °F 80% 30.02 in 10.0 mi West 12.7 mph 17.3 mph N/A   Mostly Cloudy
6:15 AM 19.4 °F 7.2 °F 14.0 °F 80% 30.02 in 10.0 mi West 11.5 mph - N/A   Mostly Cloudy
6:35 AM 19.4 °F 8.6 °F 15.8 °F 86% 30.02 in 10.0 mi West 9.2 mph - N/A   Overcast
6:55 AM 19.4 °F 8.6 °F 15.8 °F 86% 30.02 in 10.0 mi West 9.2 mph - N/A   Mostly Cloudy
7:15 AM 19.4 °F 7.9 °F 15.8 °F 86% 30.03 in 10.0 mi West 10.4 mph - N/A   Partly Cloudy
7:35 AM 17.6 °F 6.4 °F 15.8 °F 93% 30.03 in 10.0 mi West 9.2 mph - N/A   Scattered Clouds
7:55 AM 19.4 °F 7.2 °F 15.8 °F 86% 30.04 in 10.0 mi WNW 11.5 mph 17.3 mph N/A   Overcast
8:15 AM 19.4 °F 8.6 °F 15.8 °F 86% 30.04 in 10.0 mi West 9.2 mph - N/A   Mostly Cloudy
8:35 AM 19.4 °F 6.0 °F 17.6 °F 93% 30.05 in 10.0 mi West 13.8 mph - N/A   Overcast
8:55 AM 19.4 °F 7.9 °F 17.6 °F 93% 30.05 in 10.0 mi WSW 10.4 mph - N/A   Overcast
9:15 AM 21.2 °F 8.9 °F 17.6 °F 86% 30.06 in 10.0 mi West 12.7 mph - N/A   Overcast
9:35 AM 23.0 °F 10.6 °F 17.6 °F 80% 30.07 in 10.0 mi WSW 13.8 mph - N/A   Overcast
9:55 AM 23.0 °F 11.1 °F 17.6 °F 80% 30.07 in 10.0 mi West 12.7 mph - N/A   Overcast
10:15 AM 23.0 °F 12.4 °F 17.6 °F 80% 30.07 in 10.0 mi West 10.4 mph - N/A   Overcast
10:35 AM 23.0 °F 11.1 °F 17.6 °F 80% 30.08 in 10.0 mi West 12.7 mph - N/A   Overcast
10:55 AM 23.0 °F 11.1 °F 17.6 °F 80% 30.09 in 10.0 mi West 12.7 mph - N/A   Overcast
11:15 AM 23.0 °F 10.6 °F 17.6 °F 80% 30.09 in 10.0 mi West 13.8 mph 19.6 mph N/A   Overcast
11:55 AM 24.8 °F 14.6 °F 17.6 °F 74% 30.09 in 10.0 mi WNW 10.4 mph - N/A   Overcast
12:15 PM 24.8 °F 14.6 °F 17.6 °F 74% 30.09 in 10.0 mi West 10.4 mph - N/A   Mostly Cloudy
12:35 PM 24.8 °F 14.0 °F 17.6 °F 74% 30.09 in 10.0 mi WSW 11.5 mph - N/A   Scattered Clouds
12:55 PM 24.8 °F 12.4 °F 17.6 °F 74% 30.09 in 10.0 mi SW 15.0 mph - N/A   Mostly Cloudy
1:15 PM 24.8 °F 11.9 °F 17.6 °F 74% 30.08 in 10.0 mi WSW 16.1 mph 20.7 mph N/A   Overcast
1:35 PM 24.8 °F 12.4 °F 17.6 °F 74% 30.08 in 10.0 mi WSW 15.0 mph 20.7 mph N/A   Mostly Cloudy
1:55 PM 24.8 °F 12.4 °F 17.6 °F 74% 30.08 in 10.0 mi WSW 15.0 mph 18.4 mph N/A   Scattered Clouds
2:15 PM 26.6 °F 15.7 °F 17.6 °F 69% 30.08 in 10.0 mi West 12.7 mph - N/A   Scattered Clouds
2:35 PM 26.6 °F 16.2 °F 15.8 °F 64% 30.07 in 10.0 mi West 11.5 mph - N/A   Partly Cloudy
2:55 PM 26.6 °F 16.2 °F 14.0 °F 59% 30.07 in 10.0 mi West 11.5 mph 16.1 mph N/A   Clear
3:15 PM 28.4 °F 18.5 °F 14.0 °F 55% 30.07 in 10.0 mi West 11.5 mph - N/A   Clear
3:35 PM 28.4 °F 19.1 °F 12.2 °F 51% 30.07 in 10.0 mi West 10.4 mph - N/A   Clear
3:55 PM 28.4 °F 17.5 °F 12.2 °F 51% 30.07 in 10.0 mi West 13.8 mph - N/A   Clear
4:15 PM 28.4 °F 18.5 °F 12.2 °F 51% 30.06 in 10.0 mi West 11.5 mph - N/A   Clear
4:35 PM 28.4 °F 18.5 °F 12.2 °F 51% 30.06 in 10.0 mi West 11.5 mph - N/A   Clear
4:55 PM 26.6 °F 17.5 °F 10.4 °F 51% 30.07 in 10.0 mi West 9.2 mph - N/A   Clear
5:15 PM 26.6 °F 18.2 °F 10.4 °F 51% 30.07 in 10.0 mi WSW 8.1 mph - N/A   Clear
5:35 PM 23.0 °F 15.8 °F 10.4 °F 59% 30.07 in 10.0 mi West 5.8 mph - N/A   Clear
5:55 PM 23.0 °F 14.7 °F 10.4 °F 59% 30.07 in 10.0 mi West 6.9 mph - N/A   Clear
6:15 PM 23.0 °F 18.4 °F 10.4 °F 59% 30.07 in 10.0 mi West 3.5 mph - N/A   Clear
6:35 PM 24.8 °F 15.3 °F 12.2 °F 59% 30.06 in 10.0 mi WNW 9.2 mph - N/A   Clear
6:55 PM 24.8 °F 14.6 °F 12.2 °F 59% 30.06 in 10.0 mi West 10.4 mph - N/A   Clear
7:15 PM 24.8 °F 14.6 °F 12.2 °F 59% 30.06 in 10.0 mi West 10.4 mph - N/A   Clear
7:35 PM 24.8 °F 14.0 °F 12.2 °F 59% 30.06 in 10.0 mi West 11.5 mph - N/A   Clear
7:55 PM 24.8 °F 13.4 °F 12.2 °F 59% 30.06 in 10.0 mi West 12.7 mph - N/A   Clear
8:15 PM 24.8 °F 14.6 °F 12.2 °F 59% 30.05 in 10.0 mi West 10.4 mph - N/A   Clear
8:35 PM 24.8 °F 13.4 °F 12.2 °F 59% 30.05 in 10.0 mi West 12.7 mph - N/A   Clear
8:55 PM 24.8 °F 15.3 °F 14.0 °F 64% 30.05 in 10.0 mi West 9.2 mph - N/A   Clear
9:15 PM 24.8 °F 14.6 °F 14.0 °F 64% 30.05 in 10.0 mi West 10.4 mph - N/A   Clear
9:35 PM 24.8 °F 14.6 °F 14.0 °F 64% 30.06 in 10.0 mi West 10.4 mph - N/A   Clear
9:55 PM 24.8 °F 16.1 °F 14.0 °F 64% 30.06 in 10.0 mi WNW 8.1 mph - N/A   Clear
10:15 PM 23.0 °F 17.0 °F 14.0 °F 68% 30.06 in 10.0 mi West 4.6 mph - N/A   Clear
10:35 PM 23.0 °F 17.0 °F 14.0 °F 68% 30.06 in 10.0 mi NNW 4.6 mph - N/A   Mostly Cloudy
10:55 PM 21.2 °F 12.6 °F 14.0 °F 74% 30.06 in 10.0 mi NNW 6.9 mph - N/A   Overcast
11:15 PM 19.4 °F 10.4 °F 14.0 °F 80% 30.06 in 10.0 mi North 6.9 mph - N/A   Overcast
11:35 PM 17.6 °F 9.3 °F 14.0 °F 86% 30.05 in 10.0 mi North 5.8 mph - N/A   Overcast
11:55 PM 19.4 °F - 14.0 °F 80% 30.06 in 10.0 mi Calm Calm - N/A   Overcast